LYBE

Belgrade/Nikola Tesla Airport

Airport
ICAO code
LYBE
IATA Code
BEG
Summary
ICAO Region
EUR
ICAO Territory
Location

Surčin, Belgrade

Serving
Belgrade
Elevation
336 ft
Coordinates
44° 49' 6" N , 20° 18' 33" E
KCC
Metar
Observation
LYBE 050300Z 33016KT CAVOK M02/M06 Q1029 NOSIG
Station
Beograd / Surcin
Date/Time
2023-02-05 03:00:00
Wind direction
330°
Wind speed
16 kts
Lowest cloud amount
clouds and visibility OK
Temperature
-2°C
Dew point
-6°C
Humidity
74%
QNH
1029 hPa
Weather condition
n/a

Description

International airport serving capital of Serbia. The airport is situated 12 km west of central Belgrade, in the municipality of Surčin.

Climatology

Humid continental climate (Köppen climate classification Dfa) - characterized by four seasons: cold, windy, snowy winters, mild springs, hot, humid summers, and crisp and relatively short autumns. Precipitation reaches its lowest in January and February and peaks in summer and latter half of spring.

Runways

Designator Length Width Surface Rops
12/30 3400 45 ASP Yes/Yes

Airport map

Aerial View

SKYbrary Partners:

Safety knowledge contributed by: